Location: ??????
(41.3164°N, 22.6615°E)
Time: 20:21:29
(UTC+00:00)

Cosmos 1726 - Pass Details

Date: 16 October 2021
Orbit: 479 x 493 km, 82.5° (Epoch: 29 November)

Event Time Altitude Azimuth Distance (km) Brightness Sun altitude
Rises 16:16:46 0° 201° (SSW) 2,523 6.1 -6.4°
Reaches altitude 10° 16:18:55 10° 209° (SSW) 1,649 5.3 -6.8°
Maximum altitude 16:22:21 42° 281° (W) 698 3.5 -7.4°
Drops below altitude 10° 16:25:50 10° 354° (N) 1,664 4.8 -8.1°
Sets 16:28:01 0° 1° (N) 2,549 5.7 -8.5°
